Location: Acheville
(50.3840°N, 2.8827°E)
Time: 01:11:52
(UTC+00:00)

FENGYUN 1C DEB - Pass Details

Date: 05 February 2023
Orbit: 634 x 940 km, 98.3° (Epoch: 28 March)

Event Time Altitude Azimuth Distance (km) Brightness Sun altitude
Rises 05:48:57 0° 22° (NNE) 2,947 ? -14.4°
Reaches altitude 10° 05:51:21 10° 32° (NNE) 2,033 ? -14.0°
Maximum altitude 05:55:18 32° 97° (E) 1,104 ? -13.4°
Drops below altitude 10° 05:59:19 10° 161° (SSE) 2,073 ? -12.7°
Sets 06:01:46 0° 171° (S) 3,014 ? -12.4°
